Regional Weather Roundup
Issued by NWS Little Rock, AR

Home | Current Version | Previous Version | Text Only | Print | Product List | Glossary Off
Versions: 1 2 3 4 5 6 7 8 9 10 11 12 13 14 15 16 17 18 19 20 21 22 23 24 25 26 27 28 29 30 31 32 33 34 35 36 37 38 39 40 41 42 43 44 45 46 47 48 49 50

000
ASUS44 KLZK 251405
RWRLZK

WEATHER ROUNDUP FOR ARKANSAS
NATIONAL WEATHER SERVICE LITTLE ROCK AR
900 AM CDT WED MAY 25 2016

NOTE: "FAIR" INDICATES FEW OR NO CLOUDS BELOW 12,000 FEET WITH NO
SIGNIFICANT WEATHER AND/OR OBSTRUCTIONS TO VISIBILITY.

ARZ001-003-010-029-251500-
NORTHWEST ARKANSAS

CITY           SKY/WX    TMP DP  RH WIND       PRES   REMARKS
FAYETTEVILLE   CLOUDY    64  63  96 VRB3      30.03R
FORT SMITH     CLOUDY    69  66  90 NE6       30.01R
HARRISON       CLOUDY    66  63  90 NE5       30.07R
BENTONVILLE    CLOUDY    64  57  77 N15G26    30.10R THUNDER
ROGERS         TSTM      63  61  94 N13G22    30.10R
SILOAM SPGS    CLOUDY    63  54  72 NE21G31   30.07R
HIGHFILL       TSTM      63  63 100 N24G35    30.07R VSB 1/2
SPRINGDALE     HVY RAIN  64  63  94 NE15G32   30.05S FOG
$$

ARZ004-005-016-251500-
NORTH CENTRAL ARKANSAS

CITY           SKY/WX    TMP DP  RH WIND       PRES   REMARKS
BATESVILLE     CLOUDY    68  63  83 SW8       30.10R
FLIPPIN        CLOUDY   N/A N/A N/A E5        30.03R
MTN HOME       CLOUDY    63  63 100 SE5       30.06R
$$

ARZ040-041-251500-
WEST CENTRAL ARKANSAS

CITY           SKY/WX    TMP DP  RH WIND       PRES   REMARKS
MENA           CLOUDY    73  73 100 CALM      30.05S
MOUNT IDA      CLOUDY    67  65  93 CALM      30.04S
$$

ARZ009-017-025-026-028-251500-
NORTHEAST ARKANSAS

CITY           SKY/WX    TMP DP  RH WIND       PRES   REMARKS
CORNING          N/A     66  66 100 S6        30.07R
JONESBORO      CLOUDY    70  66  87 S13       30.07F
NEWPORT        CLOUDY    69  69 100 S10       30.09R
WALNUT RIDGE   CLOUDY    68  63  83 S10       30.07R
BLYTHEVILLE    CLOUDY    72  65  78 S10       30.09R
$$

ARZ022-023-033-042-044-251500-
CENTRAL ARKANSAS

CITY           SKY/WX    TMP DP  RH WIND       PRES   REMARKS
LITTLE ROCK    LGT RAIN  69  66  90 S9        30.06F
N LITTLE ROCK    N/A     67  65  95 SW5       30.05F
SEARCY         TSTM      67  66  97 SW5       30.12R
HOT SPRINGS    CLOUDY    68  66  93 E9        30.07S
RUSSELLVILLE   CLOUDY    67  66  97 SE5       30.05F
CLINTON        LGT RAIN  64  64 100 CALM      30.08S
$$

ARZ036-251500-
EAST ARKANSAS

CITY           SKY/WX    TMP DP  RH WIND       PRES   REMARKS
WEST MEMPHIS   CLOUDY    72  67  84 S12       30.10R
$$

ARZ050-053-066-070-073-251500-
SOUTHWEST ARKANSAS

CITY           SKY/WX    TMP DP  RH WIND       PRES   REMARKS
ARKADELPHIA    CLOUDY    71  71 100 CALM      30.08S
CAMDEN         CLOUDY    75  68  78 S3        30.08R
TEXARKANA      CLOUDY    77  72  84 S12       30.05R
EL DORADO      CLOUDY    77  73  87 S10       30.08R
DE QUEEN       CLOUDY    77  73  87 SE5       30.01F
$$

ARZ056-057-069-251500-
SOUTHEAST ARKANSAS

CITY           SKY/WX    TMP DP  RH WIND       PRES   REMARKS
PINE BLUFF     CLOUDY    74  68  81 CALM      30.11R
STUTTGART      CLOUDY    75  66  73 S14       30.11R
MONTICELLO     CLOUDY    77  72  84 S7        30.10R

$$





USA.gov is the U.S. government's official web portal to all federal, state and local government web resources and services.